Location: Balaclava NSW 2575, Australia
(34.4510°S, 150.4953°E)
Time: 11:33:18
(UTC+10:00)

XW-2C - Pass Details

Date: 04 August 2021
Orbit: 506 x 524 km, 97.5° (Epoch: 18 September)

Event Time Altitude Azimuth Distance (km) Brightness Sun altitude
Rises 03:59:54 0° 62° (ENE) 2,660 ? -35.1°
Reaches altitude 10° 04:03:55 10° 105° (ESE) 1,784 ? -34.2°
Maximum altitude 04:04:28 10° 113° (ESE) 1,769 ? -34.1°
Drops below altitude 10° 04:05:02 10° 122° (ESE) 1,787 ? -34.0°
Enters shadow 04:06:49 - 145° (SE) 2,050 ? -33.6°
